7 * 24
多渠道服务支持
STARLINK-31808是美国太空探索技术公司SpaceX星链卫星互联网项目的成员,于2024年5月13日发射。星链旨在构建全球覆盖的低轨卫星互联网,为偏远地区等提供高速网络服务,该卫星入轨后将和其他星链卫星组网,进一步拓展星链网络的覆盖范围与服务能力,推动低轨星座建设发展。
美国
(US)
| 数据来源 | 国际轨道数据 | AOE轨道数据 |
| 星历时间 | 2026-09-04T09:20:17+0800 10小时前 查看轨道信息 | 2026-09-02T08:00:00+0800 2天前 查看轨道信息 |
| 半长轴 | 6861.187km | 6861.14km |
| 偏心率 | 0.0001026 | 0.0001473 |
| 轨道倾角 | 43.000° | 42.996° |
| 近地点辐角 | 271.444° | 214.619° |
| 升交点赤经 | 255.768° | 267.377° |
| 平近点角 | 88.629° | 347.024° |
| 近地点 | 482.346km | 481.992km |
| 远地点 | 483.754km | 484.014km |
| 周期 | 94.267分钟 | 94.266分钟 |
| 每日圈数 | 15.275799 | 15.275956 |
| 事件ID | 空间交会对象 | 最接近时刻(TCA) | 交会距离 | 交会风险概率(CRP) | 交会风险指数(CRI) | 操作 |
|---|---|---|---|---|---|---|
| CDM_260905-131205-975106-191221 |
STARLINK-31808
(59751)
STARLINK-32303
(61912) | 2026-09-05T 13:12:53+0000 |
0.423 km
远距离 | 2.064674E-4 高风险 | 0.81 | |
| CDM_260903-142805-975106-431621 |
STARLINK-31808
(59751)
STARLINK-33590
(64316) | 2026-09-03T 14:28:13+0000 |
0.701 km
远距离 | 7.584698E-5 中风险 | 0.73 | |
| CDM_260906-054105-975106-191221 |
STARLINK-31808
(59751)
STARLINK-32303
(61912) | 2026-09-06T 05:41:30+0000 |
0.841 km
远距离 | 3.125401E-5 中风险 | 0.65 | |
| CDM_260906-071505-975106-191221 |
STARLINK-31808
(59751)
STARLINK-32303
(61912) | 2026-09-06T 07:15:39+0000 |
1.302 km
极远距离 | 6.998814E-6 低风险 | 0.52 | |
| CDM_260905-144705-975106-191221 |
STARLINK-31808
(59751)
STARLINK-32303
(61912) | 2026-09-05T 14:47:03+0000 |
1.328 km
极远距离 | 6.547558E-6 低风险 | 0.51 | |
| CDM_260905-113805-975106-191221 |
STARLINK-31808
(59751)
STARLINK-32303
(61912) | 2026-09-05T 11:38:44+0000 |
1.984 km
极远距离 | 1.968707E-6 低风险 | 0.41 | |
| CDM_260903-125405-975106-431621 |
STARLINK-31808
(59751)
STARLINK-33590
(64316) | 2026-09-03T 12:54:01+0000 |
2.963 km
极远距离 | 1.228935E-6 低风险 | 0.37 | |
| CDM_260906-040705-975106-191221 |
STARLINK-31808
(59751)
STARLINK-32303
(61912) | 2026-09-06T 04:07:21+0000 |
2.823 km
极远距离 | 1.011166E-6 低风险 | 0.35 |